Regional Weather Roundup
Issued by NWS

Home | Current Version | Previous Version | Text Only | Print | Product List | Glossary On
Versions: 1 2 3 4 5 6 7 8 9 10 11 12 13 14 15 16 17 18 19 20 21 22 23 24 25 26 27 28 29 30 31 32 33 34 35 36 37 38 39 40 41 42 43 44 45 46 47 48 49 50
000
ASUS43 KMKX 152100
RWRWI

WISCONSIN REGIONAL WEATHER ROUNDUP
NATIONAL WEATHER SERVICE MILWAUKEE/SULLIVAN WI
400 PM CDT TUE APR 15 2014

NOTE: "FAIR" INDICATES FEW OR NO CLOUDS BELOW 12,000 FEET WITH NO
SIGNIFICANT WEATHER AND/OR OBSTRUCTIONS TO VISIBILITY.

WIZ001-002-006>008-014>016-023>028-152200-
NORTHWEST WISCONSIN

CITY           SKY/WX    TMP DP  RH WIND       PRES   REMARKS
SUPERIOR ARPT  SUNNY     32   1  27 SW3       30.07F
ASHLAND        SUNNY     29   3  33 CALM      30.07F
HAYWARD        SUNNY     31  -2  24 VRB5      30.04F WCI  26
SIREN          SUNNY     32   1  26 W3        30.06F
RICE LAKE      NOT AVBL
LADYSMITH      SUNNY     32   5  32 NW3       30.07S
EAU CLAIRE     SUNNY     35   6  29 W8        30.07F WCI  29
MENOMONIE      CLEAR     34   6  30 CALM      30.08F
NEW RICHMOND   SUNNY     34   3  27 SW6       30.07F WCI  29
OSCEOLA        SUNNY     34   2  26 CALM      30.10F
$$

WIZ003>005-009-010-017-018-152200-
NORTH CENTRAL WISCONSIN

CITY           SKY/WX    TMP DP  RH WIND       PRES   REMARKS
WOODRUFF       MOSUNNY   33   7  34 NW8       30.01S WCI  26
RHINELANDER    PTSUNNY   26   4  38 W12G21    30.01F WCI  16
EAGLE RIVER    CLOUDY    26   9  48 NW14      30.01S WCI  14
LAND O LAKES   PTSUNNY   27   6  39 NW12G17   30.01F WCI  17
PHILLIPS       MOSUNNY   29   4  34 NW8       30.02F WCI  21
TOMAHAWK       CLOUDY    28   3  34 W9        30.02F WCI  19
MEDFORD        PTSUNNY   29  12  48 W12G18    30.04S WCI  19
MERRILL        CLOUDY    31   9  39 CALM      30.04S
$$

WIZ029-030-035-036-043>047-152200-
CENTRAL WISCONSIN

CITY           SKY/WX    TMP DP  RH WIND       PRES   REMARKS
WAUSAU         PTSUNNY   28  13  53 W14G20    30.04F WCI  17
MOSINEE        PTSUNNY   28  12  50 SW10      30.07S WCI  19
MARSHFIELD     MOSUNNY   30  11  45 SW5       30.06S WCI  25
STEVENS POINT  PTSUNNY   28   8  43 W9        30.07F WCI  19
WAUPACA        NOT AVBL
WAUTOMA        NOT AVBL
WISC RAPIDS    CLOUDY    31  12  45 VRB3      30.09F
CAMP DOUGLAS   NOT AVBL
$$

WIZ011>013-019>022-031-037>040-048>050-152200-
NORTHEAST WISCONSIN

CITY           SKY/WX    TMP DP  RH WIND       PRES   REMARKS
ANTIGO         CLOUDY    29  12  49 W14       30.02F WCI  18
STURGEON BAY   PTSUNNY   30  16  55 W14G20    30.07F WCI  20
GREEN BAY      PTSUNNY   31  19  61 W16       30.09S WCI  20
MANITOWOC      NOT AVBL
APPLETON       PTSUNNY   30  12  47 W12G17    30.09F WCI  21
CLINTONVILLE   PTSUNNY   32  16  51 W9        30.08F WCI  24
OSHKOSH        PTSUNNY   30  18  60 W7        30.10F WCI  23
$$

WIZ032>034-041-042-053>061-152200-
SOUTHWEST WISCONSIN

CITY           SKY/WX    TMP DP  RH WIND       PRES   REMARKS
LA CROSSE      SUNNY     37  10  32 VRB6      30.10F WCI  32
SPARTA         SUNNY     33  11  39 W5        30.10F WCI  29
VIROQUA        MOCLDY    33  15  46 W9        30.08S WCI  25
BOSCOBEL       LGT RAIN  37  11  34 VRB3G16   30.11F
PRAIRIE DU CHI SUNNY     36  13  39 SW7       30.12F WCI  31
PLATTEVILLE    FAIR      36  15  42 W13       30.11F WCI  27
$$

WIZ056-057-062-063-064-067-068-152200-
SOUTH CENTRAL WISCONSIN

CITY           SKY/WX    TMP DP  RH WIND       PRES   REMARKS
BARABOO/DELLS  PTSUNNY   32  17  54 NW8       30.09F WCI  24
LONE ROCK      NOT AVBL
WATERTOWN      CLOUDY    32  13  45 NW13      30.11F WCI  22
MADISON        PTSUNNY   34  14  43 NW7       30.11F WCI  28
MIDDLETON      MOCLDY    37  14  39 NW6       30.10F WCI  32
MONROE         MOSUNNY   34  14  43 W9        30.09F WCI  27
JANESVILLE     PTSUNNY   36  10  35 NW12G17   30.11F WCI  27
$$

WIZ051-052-058>065-066-070>072-152200-
SOUTHEAST WISCONSIN

CITY           SKY/WX    TMP DP  RH WIND       PRES   REMARKS
MILWAUKEE      PTSUNNY   31  18  58 SE16      30.13F WCI  20
WAUKESHA       MOSUNNY   30  16  55 W12       30.12F WCI  21
MILWAUKEE/TIMM CLOUDY    34   9  35 W6G22     30.12F WCI  29
RACINE         CLOUDY    30  18  60 SE12      30.15S WCI  20
BURLINGTON     PTSUNNY   35  16  45 W12       30.12S WCI  27
KENOSHA        CLOUDY    35  14  42 W8        30.13S WCI  29
FOND DU LAC    PTSUNNY   32  18  56 W8        30.10F WCI  25
SHEBOYGAN      PTSUNNY   32  18  56 W16       30.10F WCI  21
WEST BEND      CLOUDY    32  10  40 W10       30.10F WCI  24
JUNEAU         CLOUDY    32  11  42 W9G17     30.12S WCI  24
$$

LSZ147-162-152200-
LAKE SUPERIOR

STATION/POSITION TIME  TEMP    WIND        PRES    WAVE
                       AIR SEA DIR/SP/G            HT/PER
                 (UTC) (F)     (DEG/KT/KT) (MB)    (FT/S)
DEVILS ISLAND    2000   26     230/ 10/ 12 1020.0F
PORT WING        2040   28     270/  9/ 11 1019.0F
SAXON HARBOR     2000           30/  6/  8 1019.3
$$

LMZ867-665-643>646-152200-
LAKE MICHIGAN

STATION/POSITION TIME  TEMP    WIND        PRES    WAVE
                       AIR SEA DIR/SP/G            HT/PER
                 (UTC) (F)     (DEG/KT/KT) (MB)    (FT/S)
NORTHPORT PIER   2000   28     220/  5/ 10 1018.6S
SISTER BAY       2008   34     270/ 11/ 13   N/A
KEWAUNEE LAKESHO 2000   29     260/  9/ 11 1019.6F
SHEBOYGAN LAKESH 2000   31     300/ 13/ 17 1020.9F
PORT WASHINGTON  2000   34     260/  7/ 12 1020.7S
MILWAUKEE LAKESH 2000   29     120/ 12/ 14   N/A
KENOSHA   LAKESH 2000   30     110/ 11/ 12   N/A
$$

TC  - TEMPERATURE IN CELSIUS
VSB - VISIBILITY IN STATUTE MILES
WCI - WIND CHILL INDEX
HX  - HEAT INDEX




USA.gov is the U.S. government's official web portal to all federal, state and local government web resources and services.